Regional Weather Roundup
Issued by NWS

Home | Current Version | Previous Version | Text Only | Print | Product List | Glossary On
Versions: 1 2 3 4 5 6 7 8 9 10 11 12 13 14 15 16 17 18 19 20 21 22 23 24 25 26 27 28 29 30 31 32 33 34 35 36 37 38 39 40 41 42 43 44 45 46 47 48 49 50
161
ASUS45 KABQ 301510
RWRNM
NEW MEXICO REGIONAL WEATHER ROUNDUP
NATIONAL WEATHER SERVICE ALBUQUERQUE NM
900 AM MDT SAT JUL 30 2016

NOTE: "FAIR" MEANS FEW OR NO CLOUDS BELOW 12,000 FEET AGL WITH NO
       SIGNIFICANT WEATHER OR OBSTRUCTIONS TO VISION.

      THIS PRODUCT IS RELEASED AS TWO VERSIONS.  ONE VERSION NEAR
      THE TOP OF THE HOUR CONTAINING PRELIMINARY DATA FROM ALBUQUERQUE
      AND OTHER STATIONS.  A FINAL VERSION WITH ADDITIONAL DATA IS
      ISSUED ABOUT 10 MINUTES AFTER THE HOUR.

NMZ501-503-504-510>518-301600-
NORTHWEST PLATEAU/NORTHCENTRAL MOUNTAINS

CITY           SKY/WX    TMP DP  RH WIND       PRES   REMARKS
FARMINGTON     FAIR      78  44  29 E9        30.14R
LOS ALAMOS     FAIR      69  47  45 S7        30.31S
SANTA FE       FAIR      72  51  47 SE12      30.25R
TAOS           FAIR      64  37  36 CALM      30.31S
ANGEL FIRE     FAIR      56  45  64 NE6       30.40S

$$
NMZ402-403-502-505>509-301600-
WESTCENTRAL MOUNTAINS/SOUTHWEST MOUNTAINS

CITY           SKY/WX    TMP DP  RH WIND       PRES   REMARKS
GALLUP         FAIR      74  46  36 SW8       30.23S
GRANTS         FAIR      72  47  41 SE13      30.28S
SILVER CITY    FAIR      76  55  47 SE7       30.20R

$$
NMZ407-409-411-412-301600-
SOUTHERN DESERTS

CITY           SKY/WX    TMP DP  RH WIND       PRES   REMARKS
LORDSBURG      FAIR      79  55  44 E6        30.11R
DEMING         FAIR      82  57  42 SE8       30.12R
LAS CRUCES     FAIR      80  58  47 SE3       30.15R
HOLLOMAN AFB   FAIR      79  58  48 S7        30.11S
ALAMOGORDO     FAIR      77  57  50 CALM      30.14S
T OR C         FAIR      77  50  38 CALM      30.16R

$$
NMZ519>523-301600-
CENTRAL VALLEYS/CENTRAL HIGHLANDS

CITY           SKY/WX    TMP DP  RH WIND       PRES   REMARKS
ALBUQUERQUE    FAIR      72  55  55 N6        30.20R
DOUBLE EAGLE   MOSUNNY   73  50  43 NE7       30.23R
MORIARTY ARPT  FAIR      67  53  60 S3        30.28R
CLINES CORNERS FAIR      71  50  47 SW12      30.31R
BELEN          FAIR      74  49  39 CALM      30.19S
SOCORRO        FAIR      75  49  39 SE7       30.17S

$$
NMZ524>526-539-540-301600-
SOUTHCENTRAL MOUNTAINS

CITY           SKY/WX    TMP DP  RH WIND       PRES   REMARKS
RUIDOSO          N/A     72  52  49 CALM      30.34R

$$
NMZ527>531-301600-
NORTHEAST HIGHLANDS/NORTHEAST PLAINS

CITY           SKY/WX    TMP DP  RH WIND       PRES   REMARKS
LAS VEGAS      FAIR      68  52  56 S16       30.27F
RATON          FAIR      64  53  67 VRB5      30.22S
CLAYTON        FAIR      74  59  59 SW21      30.14F

$$
NMZ532>537-301600-
EASTCENTRAL PLAINS

CITY           SKY/WX    TMP DP  RH WIND       PRES   REMARKS
TUCUMCARI      FAIR      73  61  65 SW8       30.13R
CANNON AFB     FAIR      75  62  64 S17       30.16R
CLOVIS AIRPORT FAIR      73  63  68 S16       30.16S

$$
NMZ028-029-538-301600-
SOUTHEAST PLAINS

CITY           SKY/WX    TMP DP  RH WIND       PRES   REMARKS
ROSWELL        FAIR      79  60  52 SE13      30.11R
ARTESIA        FAIR      79  63  57 SE7G13    30.11R
CARLSBAD       FAIR      80  61  52 SE12      30.08R
HOBBS          SUNNY     77  64  65 SE12      30.14R


$$




USA.gov is the U.S. government's official web portal to all federal, state and local government web resources and services.